Regional Weather Roundup
Issued by NWS

Home | Current Version | Previous Version | Text Only | Print | Product List | Glossary Off
Versions: 1 2 3 4 5 6 7 8 9 10 11 12 13 14 15 16 17 18 19 20 21 22 23 24 25 26 27 28 29 30 31 32 33 34 35 36 37 38 39 40 41 42 43 44 45 46 47 48 49 50

000
ASUS45 KBOI 151710
RWRID
WEATHER ROUNDUP FOR IDAHO
NATIONAL WEATHER SERVICE BOISE ID
1100 AM MDT MON SEP 15 2014

NOTE: "FAIR" INDICATES FEW OR NO CLOUDS BELOW 12000 FEET
WITH NO SIGNIFICANT WEATHER AND/OR OBSTRUCTIONS TO VISIBILITY

IDZ012-014-151800-
SOUTHWEST IDAHO


CITY           SKY/WX    TMP DP  RH WIND       PRES   REMARKS
BOISE          SUNNY     74  32  21 CALM      30.04S
CALDWELL       SUNNY     68  37  32 S6        30.06R
MOUNTAIN HOME  MOSUNNY   72  38  29 SE10      30.06S
$$

IDZ016-017-151800-
SOUTHCENTRAL IDAHO


CITY           SKY/WX    TMP DP  RH WIND       PRES   REMARKS
BURLEY         SUNNY     68  44  42 E3        30.12S
JEROME         SUNNY     72  39  30 E12       30.11S
TWIN FALLS     SUNNY     74  41  30 E6        30.11S
$$

IDZ019>023-151800-
SOUTHEAST IDAHO


CITY           SKY/WX    TMP DP  RH WIND       PRES   REMARKS
IDAHO FALLS    MOSUNNY   67  38  34 VRB5      30.17S
POCATELLO      MOSUNNY   68  36  30 SE5       30.16S
REXBURG        SUNNY     64  40  41 CALM      30.17F
$$

IDZ006-010-011-018-031-032-151800-
CENTRAL IDAHO MOUNTAINS


CITY           SKY/WX    TMP DP  RH WIND       PRES   REMARKS
MCCALL         SUNNY     61  33  35 S5        30.15S
HAILEY         MOSUNNY   66  34  30 W7        30.20S
STANLEY          N/A     55  27  34 CALM      30.29F
SALMON         SUNNY     55  34  44 CALM      30.19F
CHALLIS        SUNNY     60  32  34 N3        30.22F
$$

IDZ002-004-006-007-026-151800-
NORTHERN IDAHO


CITY           SKY/WX    TMP DP  RH WIND       PRES   REMARKS
LEWISTON       SUNNY     61  37  41 VRB3      30.01F
LOWELL           N/A     55  40  56 CALM      30.09F
COEUR D`ALENE  SUNNY     64  45  48 NE12      30.04F
MULLAN PASS    SUNNY     57  29  34 VRB6      30.17R
$$



USA.gov is the U.S. government's official web portal to all federal, state and local government web resources and services.